Regional Weather Roundup
Issued by NWS

Home | Current Version | Previous Version | Text Only | Print | Product List | Glossary On
Versions: 1 2 3 4 5 6 7 8 9 10 11 12 13 14 15 16 17 18 19 20 21 22 23 24 25 26 27 28 29 30 31 32 33 34 35 36 37 38 39 40 41 42 43 44 45 46 47 48 49 50
000
ASUS42 KTBW 090816
RWRFL
FLORIDA REGIONAL WEATHER ROUNDUP
NATIONAL WEATHER SERVICE TAMPA BAY RUSKIN FL
300 AM EST FRI DEC 09 2016

NOTE: "FAIR" INDICATES FEW OR NO CLOUDS BELOW 12,000 FEET WITH NO
SIGNIFICANT WEATHER AND/OR OBSTRUCTIONS TO VISIBILITY.

FLZ001>010-012>015-112-114-115-090900-
PANHANDLE FLORIDA

CITY           SKY/WX    TMP DP  RH WIND       PRES   REMARKS
PENSACOLA      PTCLDY    42  27  55 N10G22    30.40F WCI  36
PENSACOLA NAS  MOCLDY    42  26  53 N14G20    30.41R WCI  35
MILTON NAS     LGT RAIN  38  26  62 N8        30.42  WCI  32
CRESTVIEW      MOCLDY    40  26  57 N5        30.42S WCI  37
DUKE FIELD     FAIR      40  26  56 N10       30.39R WCI  34
VALPARAISO     PTCLDY    42  25  51 N14G22    30.39R WCI  34
MARY ESTHER    PTCLDY    42  24  48 NE16      30.38R WCI  34
TRI COUNTY     FAIR      41  26  55 N7        30.40R WCI  36
PANAMA CITY    FAIR      44  25  47 N15G21    30.35S WCI  37
TYNDALL AFB    CLOUDY    46  27  47 N10       30.35S WCI  41
APALACHICOLA   CLOUDY    49  29  46 N18G24    30.30F WCI  42

STATION/POSITION SKY/WX   TEMP    WIND        PRES    WAVE   SWELL
                          AIR SEA DIR/SP/G            HT/PER HT/PER
                          (F)     (DEG/KT/KT) (MB)    (FT/S) (FT/S)
30.1N   87.6W              48 69   20/ 25/ 29 1028.9S   4/ 6
29.2N   88.2W              55 74   10/ 23/ 29 1029.0R   7/ 7
28.8N   86.0W              59 74              1025.4R   6/ 6
PANAMA CITY BEAC           45 65   10/  9/ 18 1027.8F
TOWER C                    51      30/ 23/ 24 1026.5R
28.5N   84.5W              61 74   30/ 19/ 23 1023.9F   6/ 6

$$
FLZ011-016>038-118-127-128-134-139-239-090900-
NORTH FLORIDA

CITY           SKY/WX    TMP DP  RH WIND       PRES   REMARKS
MARIANNA       CLOUDY    42  26  53 N7        30.37S WCI  38
TALLAHASSEE    CLOUDY    46  27  47 N12       30.34S WCI  41
PERRY          CLOUDY    49  24  37 N12G17    30.32S WCI  44
CROSS CITY     CLOUDY    50  28  43 N8        30.29R
LAKE CITY      FAIR      46  28  49 N6        30.31R WCI  43
GAINESVILLE    CLOUDY    50  25  37 N13       30.27R
WILLISTON      CLEAR     55  36  47 N7G13     30.26F
PALATKA        FAIR      52  34  50 N7        30.27S
MAYPORT NAS    MOCLDY    50  30  46 VRB7      30.28S
JACKSONVILLE   CLOUDY    48  28  46 N5        30.27S
JAX NAS        CLOUDY    51  26  37 N15       30.28F
FERNANDINA BEA FAIR      52  30  43 N10G17    30.25F
ST AUGUSTINE   CLOUDY    52  29  41 NW14      30.27R
PALM COAST     DRIZZLE   53  40  62 MISG      30.23F

STATION/POSITION SKY/WX   TEMP    WIND        PRES    WAVE   SWELL
                          AIR SEA DIR/SP/G            HT/PER HT/PER
                          (F)     (DEG/KT/KT) (MB)    (FT/S) (FT/S)
SHELL POINT      NOT AVBL
KEATON BEACH               49     360/ 12/ 15 1025.7R
CEDAR KEY                  52      20/  5/  6 1025.2R
FERNANDINA                 50 67  340/  7/ 17 1024.8F
30.7N   81.3W                 65                N/A     4/ 6   2/11
MAYPORT                    50 66  360/ 11/ 14 1024.6F
31.4N   80.9W              52 63  350/ 19/ 25 1023.9R   5/ 5   2/11
ST AUGUSTINE               52 66  340/ 17/ 20 1025.2F

$$
FLZ040-043>046-052-053-057-058-063-144-090900-
INTERIOR CENTRAL FLORIDA

CITY           SKY/WX    TMP DP  RH WIND       PRES   REMARKS
OCALA          CLOUDY    52  45  76 N3        30.26R
THE VILLAGES     N/A     52  52 100 MISG      30.18R
LEESBURG       LGT RAIN  53  47  79 N8        30.24F
SANFORD        CLOUDY    55  47  74 N8        30.22R
ORLANDO EXEC   LGT RAIN  57  48  72 N13       30.21R
ORLANDO INTL   LGT RAIN  58  48  69 N14       30.21R
KISSIMMEE      LGT RAIN  59  48  67 N9        30.22R
WINTER HAVEN   CLOUDY    60  48  64 N9        30.22R
LAKELAND       CLOUDY    59  46  63 N8        30.22R
BARTOW         CLOUDY    61  48  63 N9G17     30.22R
OKEECHOBEE     CLOUDY    61  55  82 N10       30.17F

$$
FLZ041-047-054-059-064-141-147-090900-
EAST CENTRAL FLORIDA

CITY           SKY/WX    TMP DP  RH WIND       PRES   REMARKS
DAYTONA BEACH  LGT RAIN  54  49  83 N7        30.21F
DELAND         LGT RAIN  54  46  76 N9        30.22F
JFK SPACE CTR  CLOUDY    64  51  64 N13G18    30.18S
CAPE CANAVERAL CLOUDY    65  53  65 N12G22    30.17S
PATRICK AFB    CLOUDY    65  55  69 N9        30.17F
MELBOURNE      CLOUDY    62  56  80 NW7       30.17F
VERO BEACH     CLOUDY    67  58  72 N10       30.17R
FT PIERCE      CLOUDY    67  59  75 N10       30.15F
STUART         CLOUDY    72  63  73 N9G16     30.16R

STATION/POSITION SKY/WX   TEMP    WIND        PRES    WAVE   SWELL
                          AIR SEA DIR/SP/G            HT/PER HT/PER
                          (F)     (DEG/KT/KT) (MB)    (FT/S) (FT/S)
TRIDENT PIER               65 72  350/  9/ 15 1021.5F
28.4N   80.5W                 71                N/A     3/11   2/11

$$
FLZ050-056-061-142-242-148-248-149-249-151-251-155-255-
160-260-090900-
WEST CENTRAL FLORIDA

CITY           SKY/WX    TMP DP  RH WIND       PRES   REMARKS
CRYSTAL RIVER  RAIN      50  46  87 CALM      30.26R
INVERNESS      LGT RAIN  52  48  87 N8        30.27R
BROOKSVILLE      N/A    N/A N/A N/A MISG        N/A
CLEARWATER AIR CLOUDY    57  45  62 N7        30.22F
ST PETE CLEARW CLOUDY    60  47  61 NE14      30.21F
TAMPA INTL     CLOUDY    60  45  57 NE10      30.22S
TAMPA EXEC     CLOUDY    61  46  59 N7        30.23S
PLANT CITY     CLOUDY    61  50  67 N9        30.24S
MACDILL AFB    CLOUDY    60  49  68 NE10      30.21S
PETER O KNIGHT CLOUDY    63  50  63 NE13      30.21F
ST PETERSBURG    N/A    N/A N/A N/A MISG      30.19F
SARASOTA       MOCLDY    62  51  67 N9        30.20R
VENICE         FAIR      63  55  77 NE13      30.19F

STATION/POSITION SKY/WX   TEMP    WIND        PRES    WAVE   SWELL
                          AIR SEA DIR/SP/G            HT/PER HT/PER
                          (F)     (DEG/KT/KT) (MB)    (FT/S) (FT/S)
CLEARWATER BEACH           60 69   40/  8/ 12 1023.6S
MIDDLE TAMPA BAY           62      40/ 15/ 19 1023.8R
VENICE                     62 71   20/ 12/ 16 1021.6F

$$
FLZ066-069-070-075>078-162-262-165-265-090900-
SOUTHWEST FLORIDA AND KEYS

CITY           SKY/WX    TMP DP  RH WIND       PRES   REMARKS
PUNTA GORDA    LGT RAIN  61  57  87 N9        30.20R
FT MYERS       CLOUDY    64  57  78 N13       30.16S
SOUTHWEST INTL CLOUDY    65  55  70 N12       30.16S
NAPLES         CLOUDY    67  57  70 NE13      30.13F
MARCO ISLAND   CLOUDY    66  57  72 NE8       30.14S
MARATHON       CLOUDY    77  72  84 NE10      30.07F
KEY WEST NAS   LGT RAIN  72  69  90 N15       30.09F
KEY WEST INTL  LGT RAIN  73  71  93 N12G21    30.10S

STATION/POSITION SKY/WX   TEMP    WIND        PRES    WAVE   SWELL
                          AIR SEA DIR/SP/G            HT/PER HT/PER
                          (F)     (DEG/KT/KT) (MB)    (FT/S) (FT/S)
NAPLES                        73              1020.5F
26.0N   85.6W              71 76   30/ 21/ 25 1021.7S   5/ 7
DRY TORTUGAS               72      30/ 21/ 24 1019.8S
SAND KEY                   74      30/ 19/ 20 1019.2F
LONG KEY                   74 80   20/ 15/ 17 1018.7F

$$
FLZ067-068-071>074-168-172>174-090900-
SOUTHEAST FLORIDA

CITY           SKY/WX    TMP DP  RH WIND       PRES   REMARKS
W PALM BEACH   CLOUDY    69  59  70 N8        30.13S
FT LAUDER-EXEC MOCLDY    70  61  73 N9        30.11S
FT LAUDERDALE  CLOUDY    71  64  78 N13       30.10S
POMPANO BEACH  CLOUDY    71  63  75 N9        30.11S
PEMBROKE PINES CLOUDY    71  64  78 N10       30.12S
OPA LOCKA      CLOUDY    72  65  78 N12       30.11S
MIAMI          CLOUDY    71  66  84 NW9G16    30.11S
WEST KENDALL   CLOUDY    68  67  96 N10       30.10S
HOMESTEAD      MOCLDY    70  70 100 NW10      30.09S

STATION/POSITION SKY/WX   TEMP    WIND        PRES    WAVE   SWELL
                          AIR SEA DIR/SP/G            HT/PER HT/PER
                          (F)     (DEG/KT/KT) (MB)    (FT/S) (FT/S)
PORT EVERGLADES            72     320/ 10/ 16 1019.2S
VIRGINIA KEY               71 84  340/  8/ 11 1019.5F
LAKE WORTH                 72 78  350/ 19/ 22 1019.4F
FOWEY ROCKS                73 78  340/ 17/ 17 1019.3F

$$




USA.gov is the U.S. government's official web portal to all federal, state and local government web resources and services.